TimeCET,TemperatureF,Dew PointF,Humidity,Sea Level PressureIn,VisibilityMPH,Wind Direction,Wind SpeedMPH,Gust SpeedMPH,PrecipitationIn,Events,Conditions,WindDirDegrees,DateUTC
6:00 AM,59.0,55.4,88,29.80,5.0,ENE,4.6,-,N/A,,Overcast,70,2013-02-19 05:00:00
6:30 AM,59.0,55.4,88,29.80,5.0,East,4.6,-,N/A,,Mostly Cloudy,90,2013-02-19 05:30:00
7:00 AM,58,55,85,29.81,5,ENE,6.9,,,,Mist,70,2013-02-19 06:00:00
7:00 AM,59.0,55.4,88,29.80,5.0,ENE,6.9,-,N/A,,Mostly Cloudy,70,2013-02-19 06:00:00
7:30 AM,59.0,55.4,88,29.80,5.0,ENE,5.8,-,N/A,,Mostly Cloudy,70,2013-02-19 06:30:00
8:00 AM,59.0,55.4,88,29.80,5.0,East,5.8,-,N/A,,Mostly Cloudy,80,2013-02-19 07:00:00
8:30 AM,59.0,55.4,88,29.80,5.0,ENE,5.8,-,N/A,,Mostly Cloudy,70,2013-02-19 07:30:00
9:00 AM,59.0,55.4,88,29.83,5.0,ENE,6.9,-,N/A,,Mostly Cloudy,70,2013-02-19 08:00:00
9:30 AM,59.0,55.4,88,29.83,5.0,NE,8.1,-,N/A,,Mostly Cloudy,50,2013-02-19 08:30:00
10:00 AM,59.0,55.4,88,29.83,5.0,NE,8.1,-,N/A,,Overcast,40,2013-02-19 09:00:00
10:30 AM,59.0,55.4,88,29.83,5.0,ENE,6.9,-,N/A,,Overcast,60,2013-02-19 09:30:00
11:00 AM,59.0,55.4,88,29.83,5.0,NE,8.1,-,N/A,,Overcast,40,2013-02-19 10:00:00
11:30 AM,59.0,55.4,88,29.83,5.0,NE,9.2,-,N/A,,Overcast,50,2013-02-19 10:30:00
12:00 PM,59.0,55.4,88,29.83,5.0,NE,9.2,-,N/A,,Overcast,50,2013-02-19 11:00:00
12:30 PM,59.0,55.4,88,29.83,5.0,NE,8.1,-,N/A,,Overcast,50,2013-02-19 11:30:00
1:00 PM,59,54,80,29.82,5,NE,6.9,,,,Mist,50,2013-02-19 12:00:00
1:30 PM,59.0,55.4,88,29.80,5.0,NE,8.1,-,N/A,,Overcast,40,2013-02-19 12:30:00
2:00 PM,60.8,57.2,88,29.80,5.0,NNE,8.1,-,N/A,,Overcast,30,2013-02-19 13:00:00
2:30 PM,59.0,55.4,88,29.77,5.0,NE,9.2,-,N/A,,Overcast,40,2013-02-19 13:30:00
3:00 PM,59.0,55.4,88,29.77,5.0,NNE,8.1,-,N/A,,Overcast,30,2013-02-19 14:00:00
3:30 PM,60.8,55.4,82,29.77,3.7,NNE,8.1,-,N/A,,Overcast,30,2013-02-19 14:30:00
4:00 PM,59.0,55.4,88,29.77,5.0,NE,9.2,-,N/A,,Overcast,40,2013-02-19 15:00:00
4:30 PM,59.0,53.6,82,29.77,5.0,NNE,9.2,-,N/A,,Overcast,30,2013-02-19 15:30:00
5:00 PM,59.0,53.6,82,29.74,5.0,NE,10.4,-,N/A,,Mostly Cloudy,40,2013-02-19 16:00:00
5:30 PM,59.0,53.6,82,29.77,5.0,NNE,9.2,-,N/A,,Mostly Cloudy,30,2013-02-19 16:30:00
6:30 PM,59.0,55.4,88,29.77,3.7,NE,5.8,-,N/A,Rain,Light Rain,50,2013-02-19 17:30:00
7:00 PM,58,55,85,29.78,5,ENE,6.9,,,,Mist,60,2013-02-19 18:00:00
7:00 PM,59.0,55.4,88,29.77,5.0,ENE,6.9,-,N/A,,Scattered Clouds,70,2013-02-19 18:00:00
7:30 PM,59.0,55.4,88,29.80,5.0,ENE,4.6,-,N/A,,Mostly Cloudy,70,2013-02-19 18:30:00